Pardubice, Czech Republic

5:31 AM CEST on May 28, 2017 (GMT +0200)
Pardubice

Weather History for LKPD - February, 2013

Change the Weather History Date:

Wednesday, February 13, 2013

  Actual Average Record
Temperature  
Mean Temperature 29 °F -  
Max Temperature 30 °F - - ()
Min Temperature 28 °F - - ()
Degree Days  
Heating Degree Days 36    
Moisture  
Dew Point 27 °F    
Average Humidity 92    
Maximum Humidity 100    
Minimum Humidity 86    
Precipitation  
Precipitation 0.00 in - - ()
Sea Level Pressure  
Sea Level Pressure 30.10 in    
Wind  
Wind Speed 4 mph ()    
Max Wind Speed 8 mph    
Max Gust Speed -    
Visibility 1.9 miles    
Events Snow    
T = Trace of Precipitation, MM = Missing Value Source: Averaged Metar Reports

Daily Weather History Graph

Daily Weather History Graph

Search for Another Location

Airport or City:

Trip Planner

Search our weather history database for the weather conditions in past years. The results will help you decide how hot, cold, wet, or windy it might be!

Date:

Astronomy

Feb. 13, 2013 Rise Set
Actual Time 7:11 AM CET 5:12 PM CET
Civil Twilight 6:37 AM CET 5:45 PM CET
Nautical Twilight 5:59 AM CET 6:23 PM CET
Astronomical Twilight 5:22 AM CET 7:01 PM CET
Moon 8:05 AM CET (2/13) 9:25 PM CET (2/13)
Length of Visible Light 11h 08m
Length of Day
10h 00m
Waxing Crescent, 12% of the Moon is Illuminated
Feb 13
Waxing Crescent
Feb 17
First Quarter
Feb 25
Full
Mar 4
Last Quarter
Mar 11
New

Hourly Weather History & Observations

Time (CET) Temp. Windchill Dew Point Humidity Pressure Visibility Wind Dir Wind Speed Gust Speed Precip Events Conditions
12:00 AM 28.4 °F - 28.4 °F 100% 29.92 in 0.6 mi Calm Calm - N/A Snow Light Snow
1:00 AM 28.4 °F - 28.4 °F 100% 29.92 in 0.7 mi Calm Calm - N/A Snow Light Snow
2:00 AM 28.4 °F - 28.4 °F 100% 29.92 in 1.1 mi West 2.3 mph - N/A   Overcast
3:00 AM 28.4 °F - 28.4 °F 100% 29.95 in 1.2 mi West 1.2 mph - N/A   Overcast
4:00 AM 28.4 °F - 28.4 °F 100% 29.95 in 1.6 mi Variable 2.3 mph - N/A   Overcast
4:48 AM 28.4 °F 22.2 °F 26.6 °F 93% 29.98 in 1.6 mi West 5.8 mph - N/A   Overcast
5:00 AM 28.4 °F 22.2 °F 26.6 °F 93% 29.98 in 1.6 mi West 5.8 mph - N/A   Overcast
6:00 AM 28.4 °F 23.3 °F 26.6 °F 93% 29.98 in 1.6 mi West 4.6 mph - N/A   Overcast
7:00 AM 28.4 °F 23.3 °F 26.6 °F 93% 30.01 in 1.6 mi West 4.6 mph - N/A   Overcast
9:00 AM 28.4 °F 23.3 °F 28.4 °F 100% 30.06 in 1.2 mi West 4.6 mph - N/A Snow Light Snow
10:00 AM 28.4 °F 20.4 °F 28.4 °F 100% 30.06 in 1.2 mi West 8.1 mph - N/A Snow Light Snow
11:00 AM 30.2 °F 23.4 °F 26.6 °F 86% 30.09 in 1.9 mi West 6.9 mph - N/A Snow Light Snow
11:35 AM 30.2 °F 23.4 °F 26.6 °F 86% 30.12 in 1.2 mi WNW 6.9 mph - N/A Snow Light Snow
12:00 PM 30.2 °F 23.4 °F 26.6 °F 86% 30.12 in 1.2 mi West 6.9 mph - N/A Snow Light Snow
12:22 PM 30.2 °F 23.4 °F 26.6 °F 86% 30.12 in 1.9 mi WNW 6.9 mph - N/A Snow Light Snow
12:36 PM 30.2 °F 22.6 °F 26.6 °F 86% 30.12 in 1.2 mi West 8.1 mph - N/A Snow Light Snow
1:00 PM 30.2 °F 22.6 °F 26.6 °F 86% 30.12 in 1.2 mi West 8.1 mph - N/A Snow Light Snow
2:00 PM 30.2 °F 23.4 °F 28.4 °F 93% 30.15 in 1.2 mi WNW 6.9 mph - N/A Snow Light Snow
3:00 PM 30.2 °F 22.6 °F 28.4 °F 93% 30.15 in 1.9 mi West 8.1 mph - N/A Snow Light Snow
4:00 PM 30.2 °F 23.4 °F 28.4 °F 93% 30.18 in 1.9 mi WNW 6.9 mph - N/A Snow Light Snow
4:34 PM 30.2 °F 22.6 °F 26.6 °F 86% 30.18 in 2.5 mi West 8.1 mph - N/A Snow Light Snow
5:00 PM 30.2 °F 24.3 °F 26.6 °F 86% 30.18 in 2.5 mi WNW 5.8 mph - N/A Snow Light Snow
6:00 PM 30.2 °F 24.3 °F 26.6 °F 86% 30.21 in 2.5 mi WNW 5.8 mph - N/A Snow Light Snow
7:00 PM 28.4 °F 21.2 °F 26.6 °F 93% 30.21 in 2.5 mi WNW 6.9 mph - N/A   Overcast
7:14 PM 28.4 °F 22.2 °F 26.6 °F 93% 30.21 in 3.7 mi WNW 5.8 mph - N/A   Overcast
8:00 PM 28.4 °F 21.2 °F 26.6 °F 93% 30.21 in 3.7 mi WNW 6.9 mph - N/A   Overcast
9:00 PM 28.4 °F 22.2 °F 26.6 °F 93% 30.24 in 3.7 mi West 5.8 mph - N/A   Overcast
10:00 PM 28.4 °F 22.2 °F 24.8 °F 86% 30.24 in 3.7 mi West 5.8 mph - N/A   Overcast
11:00 PM 28.4 °F 21.2 °F 24.8 °F 86% 30.27 in 3.1 mi West 6.9 mph - N/A   Overcast